When you browse on this site, cookies collect data to enhance your experience and personalize the content and advertising you see.
Visit our Privacy Policy to learn more. By continuing to use the site, you agree to this use of cookies and data.
  • Em Portugal
  • Lista de países
  • Para 7 dias
  • Temperatura da água
  • Mapa do tempo
  • Widgets de tempo
  • user-avatar
    Iniciar Sessão

    Previsão horária em Bafatá

    Hoje, 22 Fevereiro, Sábado

    Tempo Temperatura Precipitação Vento Pressão Humidade
    00:00 +24°C° 0 mm 2 m/s 755 mmHg 78%
    01:00 +23°C° 0 mm 1 m/s 755 mmHg 80%
    02:00 +22°C° 0 mm 1 m/s 755 mmHg 82%
    03:00 +22°C° 0 mm 1 m/s 755 mmHg 83%
    04:00 +22°C° 0 mm 1 m/s 755 mmHg 84%
    05:00 +21°C° 0 mm 0 m/s 755 mmHg 75%
    06:00 +22°C° 0 mm 0 m/s 756 mmHg 67%
    07:00 +23°C° 0 mm 0 m/s 756 mmHg 59%
    08:00 +25°C° 0 mm 0 m/s 757 mmHg 51%
    09:00 +31°C° 0 mm 1 m/s 757 mmHg 39%
    10:00 +34°C° 0 mm 1 m/s 756 mmHg 27%
    11:00 +39°C° 0 mm 2 m/s 756 mmHg 14%
    12:00 +41°C° 0 mm 2 m/s 755 mmHg 12%
    13:00 +42°C° 0 mm 2 m/s 754 mmHg 10%
    14:00 +45°C° 0 mm 2 m/s 753 mmHg 8%
    15:00 +43°C° 0 mm 2 m/s 753 mmHg 8%
    16:00 +43°C° 0 mm 2 m/s 753 mmHg 8%
    17:00 +42°C° 0 mm 2 m/s 753 mmHg 8%
    18:00 +39°C° 0 mm 2 m/s 753 mmHg 10%
    19:00 +36°C° 0 mm 2 m/s 754 mmHg 13%
    20:00 +32°C° 0 mm 2 m/s 755 mmHg 15%
    21:00 +30°C° 0 mm 2 m/s 755 mmHg 28%
    22:00 +28°C° 0 mm 2 m/s 755 mmHg 42%
    23:00 +26°C° 0 mm 2 m/s 755 mmHg 55%

    Amanhã, 23 Fevereiro, Domingo

    Tempo Temperatura Precipitação Vento Pressão Humidade
    00:00 +25°C° 0 mm 2 m/s 755 mmHg 62%
    01:00 +24°C° 0 mm 2 m/s 755 mmHg 69%
    02:00 +23°C° 0 mm 1 m/s 755 mmHg 75%
    03:00 +23°C° 0 mm 1 m/s 755 mmHg 75%
    04:00 +22°C° 0 mm 1 m/s 755 mmHg 74%
    05:00 +22°C° 0 mm 1 m/s 755 mmHg 74%
    06:00 +23°C° 0 mm 1 m/s 756 mmHg 68%
    07:00 +24°C° 0 mm 1 m/s 757 mmHg 62%
    08:00 +26°C° 0 mm 1 m/s 757 mmHg 56%
    09:00 +28°C° 0 mm 1 m/s 757 mmHg 48%
    10:00 +30°C° 0 mm 1 m/s 757 mmHg 40%
    11:00 +32°C° 0 mm 1 m/s 757 mmHg 32%
    12:00 +35°C° 0 mm 1 m/s 756 mmHg 25%
    13:00 +39°C° 0 mm 1 m/s 755 mmHg 18%
    14:00 +42°C° 0 mm 2 m/s 754 mmHg 11%
    15:00 +41°C° 0 mm 1 m/s 754 mmHg 12%
    16:00 +39°C° 0 mm 1 m/s 754 mmHg 12%
    17:00 +37°C° 0 mm 1 m/s 753 mmHg 13%
    18:00 +36°C° 0 mm 1 m/s 754 mmHg 15%
    19:00 +35°C° 0 mm 2 m/s 755 mmHg 18%
    20:00 +32°C° 0 mm 2 m/s 755 mmHg 20%
    21:00 +31°C° 0 mm 2 m/s 756 mmHg 29%
    22:00 +29°C° 0 mm 2 m/s 756 mmHg 38%
    23:00 +28°C° 0 mm 2 m/s 756 mmHg 47%

    Depois de amanhã, 24 Fevereiro, Segunda-feira

    Tempo Temperatura Precipitação Vento Pressão Humidade
    00:00 +27°C° 0 mm 2 m/s 756 mmHg 49%
    01:00 +26°C° 0 mm 1 m/s 756 mmHg 51%
    02:00 +25°C° 0 mm 1 m/s 755 mmHg 53%
    03:00 +25°C° 0 mm 1 m/s 755 mmHg 54%
    04:00 +24°C° 0 mm 1 m/s 755 mmHg 54%
    05:00 +24°C° 0 mm 1 m/s 755 mmHg 55%
    06:00 +25°C° 0 mm 1 m/s 755 mmHg 50%
    07:00 +27°C° 0 mm 1 m/s 756 mmHg 46%
    08:00 +29°C° 0 mm 1 m/s 757 mmHg 42%
    09:00 +32°C° 0 mm 1 m/s 756 mmHg 33%
    10:00 +37°C° 0 mm 2 m/s 756 mmHg 25%
    11:00 +42°C° 0 mm 3 m/s 756 mmHg 17%
    12:00 +43°C° 0 mm 3 m/s 755 mmHg 15%
    13:00 +45°C° 0 mm 3 m/s 754 mmHg 12%
    14:00 +46°C° 0 mm 3 m/s 753 mmHg 10%
    15:00 +46°C° 0 mm 3 m/s 753 mmHg 10%
    16:00 +45°C° 0 mm 2 m/s 752 mmHg 10%
    17:00 +45°C° 0 mm 2 m/s 752 mmHg 10%
    18:00 +40°C° 0 mm 2 m/s 753 mmHg 15%
    19:00 +36°C° 0 mm 2 m/s 753 mmHg 21%
    20:00 +32°C° 0 mm 2 m/s 754 mmHg 26%
    21:00 +30°C° 0 mm 2 m/s 754 mmHg 35%
    22:00 +28°C° 0 mm 2 m/s 754 mmHg 44%
    23:00 +26°C° 0 mm 2 m/s 754 mmHg 54%

    25 Fevereiro, Terça-feira

    Tempo Temperatura Precipitação Vento Pressão Humidade
    00:00 +25°C° 0 mm 1 m/s 754 mmHg 56%
    01:00 +25°C° 0 mm 1 m/s 754 mmHg 59%
    02:00 +22°C° 0 mm 0 m/s 754 mmHg 62%
    03:00 +25°C° 0 mm 1 m/s 754 mmHg 57%
    04:00 +25°C° 0 mm 1 m/s 754 mmHg 52%
    05:00 +25°C° 0 mm 2 m/s 753 mmHg 47%
    06:00 +27°C° 0 mm 3 m/s 754 mmHg 40%
    07:00 +29°C° 0 mm 4 m/s 754 mmHg 33%
    08:00 +32°C° 0 mm 5 m/s 755 mmHg 26%
    09:00 +35°C° 0 mm 5 m/s 755 mmHg 21%
    10:00 +39°C° 0 mm 6 m/s 754 mmHg 16%
    11:00 +44°C° 0 mm 6 m/s 754 mmHg 11%
    12:00 +45°C° 0 mm 5 m/s 753 mmHg 10%
    13:00 +47°C° 0 mm 5 m/s 752 mmHg 8%
    14:00 +48°C° 0 mm 4 m/s 751 mmHg 7%
    15:00 +48°C° 0 mm 4 m/s 751 mmHg 7%
    16:00 +47°C° 0 mm 3 m/s 751 mmHg 7%
    17:00 +46°C° 0 mm 2 m/s 751 mmHg 7%
    18:00 +40°C° 0 mm 3 m/s 752 mmHg 28%
    19:00 +35°C° 0 mm 3 m/s 753 mmHg 49%
    20:00 +29°C° 0 mm 3 m/s 753 mmHg 70%
    21:00 +27°C° 0 mm 2 m/s 754 mmHg 77%
    22:00 +26°C° 0 mm 2 m/s 754 mmHg 83%
    23:00 +25°C° 0 mm 1 m/s 755 mmHg 90%

    26 Fevereiro, Quarta-feira

    Tempo Temperatura Precipitação Vento Pressão Humidade
    00:00 +24°C° 0 mm 1 m/s 754 mmHg 91%
    01:00 +24°C° 0 mm 1 m/s 754 mmHg 92%
    02:00 +21°C° 0 mm 0 m/s 754 mmHg 93%
    03:00 +21°C° 0 mm 0 m/s 754 mmHg 94%
    04:00 +23°C° 0 mm 1 m/s 754 mmHg 94%
    05:00 +23°C° 0 mm 1 m/s 754 mmHg 95%
    06:00 +25°C° 0 mm 1 m/s 755 mmHg 87%
    07:00 +26°C° 0 mm 1 m/s 755 mmHg 80%
    08:00 +28°C° 0 mm 2 m/s 755 mmHg 72%
    09:00 +31°C° 0 mm 2 m/s 755 mmHg 57%
    10:00 +36°C° 0 mm 2 m/s 755 mmHg 42%
    11:00 +40°C° 0 mm 2 m/s 755 mmHg 27%
    12:00 +41°C° 0 mm 2 m/s 754 mmHg 22%
    13:00 +43°C° 0 mm 2 m/s 753 mmHg 18%
    14:00 +46°C° 0 mm 2 m/s 752 mmHg 14%
    15:00 +45°C° 0 mm 2 m/s 752 mmHg 14%
    16:00 +44°C° 0 mm 1 m/s 752 mmHg 13%
    17:00 +43°C° 0 mm 1 m/s 752 mmHg 13%
    18:00 +39°C° 0 mm 2 m/s 752 mmHg 29%
    19:00 +35°C° 0 mm 2 m/s 753 mmHg 45%
    20:00 +29°C° 0 mm 3 m/s 754 mmHg 61%
    21:00 +28°C° 0 mm 2 m/s 754 mmHg 72%
    22:00 +26°C° 0 mm 2 m/s 755 mmHg 82%
    23:00 +24°C° 0 mm 1 m/s 755 mmHg 92%

    27 Fevereiro, Quinta-feira

    Tempo Temperatura Precipitação Vento Pressão Humidade
    00:00 +24°C° 0 mm 1 m/s 755 mmHg 93%
    01:00 +24°C° 0 mm 1 m/s 755 mmHg 95%
    02:00 +24°C° 0 mm 1 m/s 755 mmHg 96%
    03:00 +23°C° 0 mm 1 m/s 755 mmHg 97%
    04:00 +23°C° 0 mm 1 m/s 755 mmHg 97%
    05:00 +23°C° 0 mm 1 m/s 755 mmHg 97%
    06:00 +25°C° 0 mm 1 m/s 756 mmHg 89%
    07:00 +27°C° 0 mm 1 m/s 756 mmHg 81%
    08:00 +28°C° 0 mm 1 m/s 757 mmHg 73%
    09:00 +33°C° 0 mm 1 m/s 757 mmHg 56%
    10:00 +39°C° 0 mm 1 m/s 757 mmHg 40%
    11:00 +40°C° 0 mm 0 m/s 756 mmHg 23%
    12:00 +44°C° 0 mm 1 m/s 755 mmHg 21%
    13:00 +44°C° 0 mm 1 m/s 754 mmHg 18%
    14:00 +45°C° 0 mm 1 m/s 753 mmHg 15%
    15:00 +44°C° 0 mm 1 m/s 753 mmHg 15%
    16:00 +43°C° 0 mm 1 m/s 753 mmHg 15%
    17:00 +42°C° 0 mm 1 m/s 753 mmHg 15%
    18:00 +38°C° 0 mm 2 m/s 753 mmHg 29%
    19:00 +34°C° 0 mm 3 m/s 754 mmHg 44%
    20:00 +29°C° 0 mm 3 m/s 754 mmHg 59%
    21:00 +28°C° 0 mm 3 m/s 755 mmHg 67%
    22:00 +26°C° 0 mm 2 m/s 755 mmHg 75%
    23:00 +25°C° 0 mm 2 m/s 756 mmHg 83%
    Mostrar mais